Location: Bli��� Lhota
(48.7570°N, 14.0120°E)
Time: 02:54:50
(UTC+00:00)

Cosmos 2263 Rocket - Pass Details

Date: 18 September 2020
Orbit: 822 x 850 km, 71.0° (Epoch: 24 October)

Event Time Altitude Azimuth Distance (km) Brightness Sun altitude
Rises 17:48:11 0° 197° (SSW) 3,344 5.4 -7.1°
Reaches altitude 10° 17:50:37 10° 195° (SSW) 2,417 4.7 -7.5°
Maximum altitude 17:56:06 68° 114° (ESE) 889 2.1 -8.4°
Drops below altitude 10° 18:01:39 10° 32° (NNE) 2,446 4.4 -9.3°
Sets 18:04:07 0° 30° (NNE) 3,387 5.2 -9.7°
